EA1ZE Weather Reports


time (UTC)temp
C
wind
direction
speed
KPH
gust
KPH
rain 1hr
cm
rain 24hr
cm
rain mn
cm
humidity
%
barometer
mb
20260503054533 11 180 0.0 0.0 0.00 0.61 0.00 87 1012.5
20260503053039 11 180 0.0 0.0 0.00 0.61 0.00 87 1012.5
20260503051531 11 180 0.0 0.0 0.00 0.61 0.00 86 1012.7
20260503050033 11 180 0.0 0.0 0.00 0.61 0.00 86 1012.7
20260503044601 11 180 0.0 0.0 0.00 0.61 0.00 85 1012.7
20260503043028 11 180 0.0 0.0 0.00 0.61 0.00 85 1012.8
20260503041529 11 180 0.0 0.0 0.00 0.61 0.00 85 1012.7
20260503040028 11 180 0.0 0.0 0.00 0.61 0.00 85 1012.9
20260503034529 11 180 0.0 0.0 0.00 0.61 0.00 86 1012.9
20260503033025 11 180 0.0 0.0 0.00 0.61 0.00 86 1013.0
20260503031523 11 180 0.0 0.0 0.00 0.61 0.00 85 1013.0
20260503030022 11 180 0.0 1.6 0.00 0.61 0.00 86 1013.1
20260503024521 11 180 0.0 6.4 0.00 0.61 0.00 86 1013.3
20260503023020 11 180 3.2 11.3 0.00 0.61 0.00 86 1013.4
20260503021520 11 207 3.2 6.4 0.00 0.61 0.00 84 1013.3
20260503020030 11 207 4.8 9.7 0.00 0.61 0.00 82 1013.3
20260503014515 12 207 4.8 8.0 0.00 0.61 0.00 80 1013.4
20260503013014 11 225 4.8 8.0 0.00 0.61 0.00 79 1013.4
20260503011513 11 227 0.0 0.0 0.00 0.61 0.00 80 1013.5
20260503010012 11 229 0.0 0.0 0.00 0.61 0.00 80 1013.5
20260503004511 11 229 0.0 0.0 0.00 0.61 0.00 79 1013.7
20260503003017 11 229 0.0 0.0 0.00 0.61 0.00 80 1013.9
20260503001511 11 229 0.0 1.6 0.00 0.61 0.00 80 1013.9
20260503000014 11 229 1.6 6.4 0.00 0.61 0.00 80 1014.0
20260502234507 12 231 1.6 6.4 0.00 0.61 0.00 80 1014.0
20260502233004 12 231 1.6 6.4 0.00 0.61 0.00 79 1014.1
20260502231502 12 231 0.0 1.6 0.00 0.61 0.00 78 1014.0
20260502230101 12 231 0.0 6.4 0.00 0.71 0.00 78 1014.0
20260502230000 12 231 1.6 8.0 0.00 0.71 0.00 78 1014.0
20260502224604 13 231 1.6 4.8 0.00 0.71 0.00 79 1014.1
20260502223106 13 231 1.6 9.7 0.00 0.71 0.00 78 1014.0
20260502221601 13 234 3.2 11.3 0.00 0.71 0.00 79 1013.8
20260502214612 13 202 1.6 8.0 0.00 0.71 0.71 81 1013.7
20260502213118 13 180 4.8 11.3 0.00 0.71 0.71 82 1013.8
20260502211556 13 178 4.8 9.7 0.00 0.71 0.71 82 1013.6
20260502210052 13 174 4.8 9.7 0.00 0.71 0.71 82 1013.6
20260502204552 13 189 6.4 9.7 0.00 0.71 0.71 79 1013.4
20260502203111 14 192 4.8 8.0 0.00 0.71 0.71 78 1013.2
20260502201551 15 198 6.4 9.7 0.00 0.71 0.71 75 1013.1
20260502200056 15 200 1.6 4.8 0.00 0.71 0.71 75 1012.9
20260502194552 15 200 3.2 12.9 0.00 0.71 0.71 75 1012.8
20260502193049 15 246 4.8 12.9 0.00 0.71 0.71 73 1013.0
20260502191549 15 275 3.2 17.7 0.03 0.71 0.71 72 1012.8
20260502190048 16 248 3.2 12.9 0.03 0.71 0.71 74 1012.7
20260502184548 16 287 1.6 4.8 0.03 0.71 0.71 75 1012.6
20260502183048 16 287 0.0 0.0 0.00 0.71 0.71 75 1012.5
20260502181547 16 287 0.0 0.0 0.00 0.71 0.71 76 1012.4
20260502163057 16 294 3.2 14.5 0.00 0.69 0.69 70 1012.5
20260502161558 16 309 4.8 16.1 0.05 0.69 0.69 71 1012.4
20260502151541 17 232 4.8 11.3 0.18 0.64 0.64 75 1012.4
20260502130158 13 128 8.0 24.1 0.03 0.46 0.46 81 1013.6
20260502123150 16 190 22.5 45.1 0.03 0.46 0.46 68 1014.3
20260502121635 17 234 19.3 46.7 0.03 0.46 0.46 63 1014.1
20260502120121 17 207 14.5 25.7 0.00 0.43 0.43 67 1013.9
20260502114646 17 200 12.9 30.6 0.00 0.43 0.43 67 1013.7
20260502113135 16 179 9.7 17.7 0.00 0.43 0.43 74 1014.1
20260502111524 15 174 4.8 24.1 0.15 0.43 0.43 79 1014.3
20260502110120 14 215 6.4 12.9 0.20 0.43 0.43 87 1014.8
20260502104547 13 140 8.0 17.7 0.25 0.43 0.43 88 1014.9
20260502103047 13 302 8.0 29.0 0.25 0.43 0.43 87 1015.4
20260502101547 13 211 14.5 27.4 0.15 0.28 0.28 84 1015.9
20260502070040 13 80 0.0 6.4 0.00 0.13 0.13 85 1015.4
20260502064545 13 98 3.2 6.4 0.00 0.13 0.13 86 1015.4